This is the latest recevied weather packets stored in our database for station/object KN6CRX. If no packets are shown the sender has not sent any weather packets the latest 10 day(s).
| Time | Temp. | Humidity | Pressure | Rain* | Wind** | Luminosity | Snow |
|---|---|---|---|---|---|---|---|
| 1787975727 | 17.22° C | 76% | 1020.6 hPa | 0 mm | - | 0 W/m² | - |
| 1787975426 | 17.22° C | 74% | 1020.6 hPa | 0 mm | - | 0 W/m² | - |
| 1787975126 | 17.22° C | 74% | 1020.5 hPa | 0 mm | - | 0 W/m² | - |
| 1787974825 | 17.78° C | 74% | 1020.6 hPa | 0 mm | - | 0 W/m² | - |
| 1787974525 | 17.78° C | 75% | 1020.6 hPa | 0 mm | - | 0 W/m² | - |
| 1787974220 | 17.78° C | 73% | 1020.6 hPa | 0 mm | - | 0 W/m² | - |
| 1787973919 | 17.78° C | 73% | 1020.6 hPa | 0 mm | - | 0 W/m² | - |
| 1787973614 | 18.33° C | 74% | 1020.7 hPa | 0 mm | - | 0 W/m² | - |
| 1787973309 | 18.33° C | 72% | 1020.6 hPa | 0 mm | - | 0 W/m² | - |
| 1787973008 | 18.33° C | 73% | 1020.3 hPa | 0 mm | - | 0 W/m² | - |
| 1787972704 | 18.33° C | 73% | 1020.8 hPa | 0 mm | - | 0 W/m² | - |
| 1787972403 | 18.33° C | 72% | 1020.5 hPa | 0 mm | - | 0 W/m² | - |
| 1787972097 | 18.33° C | 71% | 1020.7 hPa | 0 mm | - | 0 W/m² | - |
| 1787971798 | 18.33° C | 68% | 1020.5 hPa | 0 mm | - | 0 W/m² | - |
| 1787971494 | 18.33° C | 69% | 1020.3 hPa | 0 mm | - | 0 W/m² | - |
| 1787971189 | 18.33° C | 72% | 1020 hPa | 0 mm | - | 0 W/m² | - |
| 1787970888 | 18.33° C | 77% | 1020 hPa | 0 mm | - | 0 W/m² | - |
| 1787970583 | 18.33° C | 78% | 1019.9 hPa | 0 mm | - | 0 W/m² | - |
| 1787970278 | 18.89° C | 76% | 1019.5 hPa | 0 mm | - | 0 W/m² | - |
| 1787969977 | 18.89° C | 72% | 1020 hPa | 0 mm | - | 0 W/m² | - |
| 1787969671 | 18.89° C | 71% | 1020.3 hPa | 0 mm | - | 0 W/m² | - |
| 1787969371 | 18.89° C | 72% | 1019.9 hPa | 0 mm | - | 0 W/m² | - |
| 1787969070 | 18.89° C | 73% | 1020.5 hPa | 0 mm | - | 1 W/m² | - |
| 1787968765 | 18.33° C | 78% | 1020.3 hPa | 0 mm | - | 1 W/m² | - |
| 1787968464 | 18.33° C | 80% | 1020.3 hPa | 0 mm | - | 2 W/m² | - |
* Rain latest hour (hover to see other rain measurements)
** Current wind speed in m/s (hover to see current wind gust speed)